Meteo pe oră la Dadakalivka

Astăzi, 23 Aprilie, Vineri

Timp Temperatura Precipitaţii Vânt Presiune Umiditate
00:00 +8°C° 0 mm 4 m/s 751 mmHg 75%
01:00 +8°C° 0 mm 4 m/s 751 mmHg 76%
02:00 +8°C° 0 mm 4 m/s 751 mmHg 78%
03:00 +8°C° 0 mm 4 m/s 751 mmHg 80%
04:00 +7°C° 0 mm 4 m/s 750 mmHg 82%
05:00 +7°C° 0 mm 4 m/s 750 mmHg 84%
06:00 +8°C° 0 mm 5 m/s 750 mmHg 80%
07:00 +9°C° 0 mm 5 m/s 750 mmHg 76%
08:00 +10°C° 0 mm 6 m/s 750 mmHg 72%
09:00 +11°C° 0 mm 6 m/s 750 mmHg 67%
10:00 +14°C° 0 mm 7 m/s 750 mmHg 62%
11:00 +15°C° 0 mm 7 m/s 749 mmHg 56%
12:00 +15°C° 0.6 mm 7 m/s 749 mmHg 60%
13:00 +14°C° 0.6 mm 7 m/s 749 mmHg 63%
14:00 +14°C° 0.6 mm 7 m/s 748 mmHg 66%
15:00 +11°C° 1.6 mm 6 m/s 748 mmHg 74%
16:00 +9°C° 1.6 mm 6 m/s 748 mmHg 82%
17:00 +7°C° 1.6 mm 5 m/s 748 mmHg 90%
18:00 +6°C° 0.7 mm 5 m/s 748 mmHg 89%
19:00 +6°C° 0.7 mm 5 m/s 749 mmHg 87%
20:00 +5°C° 0.7 mm 4 m/s 749 mmHg 86%
21:00 +5°C° 0.1 mm 4 m/s 749 mmHg 85%
22:00 +5°C° 0.1 mm 3 m/s 749 mmHg 83%
23:00 +5°C° 0.1 mm 3 m/s 749 mmHg 82%

Mâine, 24 Aprilie, Sâmbătă

Timp Temperatura Precipitaţii Vânt Presiune Umiditate
00:00 +4°C° 0 mm 3 m/s 749 mmHg 85%
01:00 +4°C° 0 mm 3 m/s 749 mmHg 88%
02:00 +3°C° 0 mm 3 m/s 748 mmHg 91%
03:00 +3°C° 0 mm 3 m/s 748 mmHg 90%
04:00 +2°C° 0 mm 3 m/s 748 mmHg 89%
05:00 +2°C° 0 mm 3 m/s 748 mmHg 89%
06:00 +3°C° 0 mm 4 m/s 749 mmHg 81%
07:00 +3°C° 0 mm 5 m/s 749 mmHg 74%
08:00 +5°C° 0 mm 6 m/s 749 mmHg 66%
09:00 +5°C° 0 mm 7 m/s 749 mmHg 60%
10:00 +5°C° 0 mm 7 m/s 749 mmHg 55%
11:00 +6°C° 0 mm 8 m/s 750 mmHg 49%
12:00 +6°C° 0.1 mm 8 m/s 750 mmHg 46%
13:00 +6°C° 0.1 mm 9 m/s 750 mmHg 42%
14:00 +6°C° 0.1 mm 9 m/s 750 mmHg 38%
15:00 +6°C° 0.1 mm 8 m/s 750 mmHg 43%
16:00 +5°C° 0.1 mm 7 m/s 751 mmHg 48%
17:00 +5°C° 0.1 mm 7 m/s 751 mmHg 54%
18:00 +3°C° 0 mm 5 m/s 751 mmHg 59%
19:00 +3°C° 0 mm 4 m/s 752 mmHg 64%
20:00 +2°C° 0 mm 3 m/s 752 mmHg 69%
21:00 +2°C° 0 mm 3 m/s 752 mmHg 71%
22:00 +1°C° 0 mm 3 m/s 752 mmHg 73%
23:00 +1°C° 0 mm 3 m/s 752 mmHg 75%

Poimâine, 25 Aprilie, Duminică

Timp Temperatura Precipitaţii Vânt Presiune Umiditate
00:00 0°C° 0 mm 3 m/s 752 mmHg 76%
01:00 0°C° 0 mm 3 m/s 752 mmHg 77%
02:00 0°C° 0 mm 3 m/s 753 mmHg 78%
03:00 -1°C° 0 mm 3 m/s 752 mmHg 77%
04:00 -1°C° 0 mm 3 m/s 752 mmHg 77%
05:00 -1°C° 0 mm 2 m/s 752 mmHg 77%
06:00 +1°C° 0 mm 3 m/s 752 mmHg 70%
07:00 +4°C° 0 mm 4 m/s 752 mmHg 63%
08:00 +6°C° 0 mm 4 m/s 752 mmHg 56%
09:00 +7°C° 0 mm 5 m/s 752 mmHg 52%
10:00 +8°C° 0 mm 6 m/s 751 mmHg 49%
11:00 +9°C° 0 mm 6 m/s 751 mmHg 45%
12:00 +9°C° 0.1 mm 6 m/s 751 mmHg 48%
13:00 +9°C° 0.1 mm 7 m/s 750 mmHg 51%
14:00 +10°C° 0.1 mm 7 m/s 750 mmHg 54%
15:00 +8°C° 0.2 mm 6 m/s 750 mmHg 64%
16:00 +7°C° 0.2 mm 6 m/s 750 mmHg 74%
17:00 +6°C° 0.2 mm 5 m/s 750 mmHg 83%
18:00 +5°C° 0.6 mm 4 m/s 750 mmHg 85%
19:00 +5°C° 0.6 mm 3 m/s 750 mmHg 86%
20:00 +5°C° 0.6 mm 2 m/s 750 mmHg 88%
21:00 +5°C° 0.1 mm 2 m/s 750 mmHg 86%
22:00 +6°C° 0.1 mm 1 m/s 750 mmHg 84%
23:00 +5°C° 0.1 mm 1 m/s 750 mmHg 82%

26 Aprilie, Luni

Timp Temperatura Precipitaţii Vânt Presiune Umiditate
00:00 +5°C° 0 mm 1 m/s 750 mmHg 83%
01:00 +3°C° 0 mm 2 m/s 750 mmHg 84%
02:00 +2°C° 0 mm 2 m/s 750 mmHg 86%
03:00 +2°C° 0 mm 2 m/s 750 mmHg 85%
04:00 +1°C° 0 mm 2 m/s 750 mmHg 85%
05:00 +1°C° 0 mm 2 m/s 750 mmHg 84%
06:00 +2°C° 0 mm 2 m/s 750 mmHg 77%
07:00 +4°C° 0 mm 2 m/s 750 mmHg 70%
08:00 +6°C° 0 mm 1 m/s 750 mmHg 63%
09:00 +6°C° 0 mm 2 m/s 750 mmHg 57%
10:00 +7°C° 0 mm 2 m/s 749 mmHg 51%
11:00 +8°C° 0 mm 3 m/s 749 mmHg 45%
12:00 +8°C° 0.1 mm 3 m/s 749 mmHg 45%
13:00 +8°C° 0.1 mm 4 m/s 749 mmHg 45%
14:00 +8°C° 0.1 mm 5 m/s 748 mmHg 45%
15:00 +8°C° 0.1 mm 4 m/s 748 mmHg 47%
16:00 +7°C° 0.1 mm 4 m/s 748 mmHg 50%
17:00 +7°C° 0.1 mm 4 m/s 748 mmHg 52%
18:00 +6°C° 0.1 mm 4 m/s 748 mmHg 59%
19:00 +4°C° 0.1 mm 3 m/s 748 mmHg 66%
20:00 +3°C° 0.1 mm 3 m/s 748 mmHg 72%
21:00 +2°C° 0 mm 3 m/s 748 mmHg 77%
22:00 +2°C° 0 mm 3 m/s 748 mmHg 82%
23:00 +1°C° 0 mm 3 m/s 749 mmHg 86%

27 Aprilie, Marţi

Timp Temperatura Precipitaţii Vânt Presiune Umiditate
00:00 +1°C° 0 mm 3 m/s 749 mmHg 87%
01:00 +1°C° 0 mm 2 m/s 749 mmHg 88%
02:00 +1°C° 0 mm 2 m/s 749 mmHg 89%
03:00 +1°C° 0 mm 2 m/s 749 mmHg 88%
04:00 +1°C° 0 mm 2 m/s 748 mmHg 87%
05:00 +1°C° 0 mm 2 m/s 748 mmHg 86%
06:00 +2°C° 0 mm 2 m/s 748 mmHg 77%
07:00 +3°C° 0 mm 3 m/s 749 mmHg 69%
08:00 +4°C° 0 mm 3 m/s 749 mmHg 61%
09:00 +5°C° 0 mm 3 m/s 749 mmHg 55%
10:00 +6°C° 0 mm 4 m/s 749 mmHg 48%
11:00 +7°C° 0 mm 4 m/s 749 mmHg 42%
12:00 +8°C° 0 mm 4 m/s 748 mmHg 41%
13:00 +8°C° 0 mm 5 m/s 748 mmHg 40%
14:00 +8°C° 0 mm 5 m/s 748 mmHg 39%
15:00 +8°C° 0 mm 5 m/s 748 mmHg 45%
16:00 +7°C° 0 mm 5 m/s 748 mmHg 50%
17:00 +7°C° 0 mm 5 m/s 748 mmHg 56%
18:00 +5°C° 0 mm 4 m/s 749 mmHg 63%
19:00 +4°C° 0 mm 3 m/s 749 mmHg 70%
20:00 +4°C° 0 mm 2 m/s 749 mmHg 77%
21:00 +3°C° 0 mm 2 m/s 750 mmHg 78%
22:00 +3°C° 0 mm 2 m/s 750 mmHg 78%
23:00 +3°C° 0 mm 2 m/s 750 mmHg 79%

28 Aprilie, Miercuri

Timp Temperatura Precipitaţii Vânt Presiune Umiditate
00:00 +2°C° 0 mm 2 m/s 750 mmHg 79%
01:00 +2°C° 0 mm 2 m/s 750 mmHg 80%
02:00 +2°C° 0 mm 2 m/s 751 mmHg 80%
03:00 +2°C° 0 mm 2 m/s 751 mmHg 81%
04:00 +2°C° 0 mm 2 m/s 751 mmHg 82%
05:00 +1°C° 0 mm 2 m/s 751 mmHg 83%
06:00 +4°C° 0 mm 2 m/s 751 mmHg 76%
07:00 +6°C° 0 mm 2 m/s 751 mmHg 69%
08:00 +8°C° 0 mm 2 m/s 751 mmHg 62%
09:00 +9°C° 0 mm 3 m/s 751 mmHg 58%
10:00 +10°C° 0 mm 3 m/s 751 mmHg 53%
11:00 +12°C° 0 mm 3 m/s 751 mmHg 49%
12:00 +12°C° 0 mm 4 m/s 751 mmHg 48%
13:00 +13°C° 0 mm 4 m/s 750 mmHg 47%
14:00 +13°C° 0 mm 4 m/s 750 mmHg 46%
15:00 +13°C° 0 mm 4 m/s 749 mmHg 48%
16:00 +13°C° 0 mm 4 m/s 749 mmHg 51%
17:00 +13°C° 0 mm 4 m/s 749 mmHg 54%
18:00 +11°C° 0 mm 4 m/s 749 mmHg 59%
19:00 +8°C° 0 mm 4 m/s 748 mmHg 65%
20:00 +8°C° 0 mm 3 m/s 748 mmHg 70%
21:00 +6°C° 0 mm 4 m/s 748 mmHg 72%
22:00 +6°C° 0 mm 4 m/s 748 mmHg 74%
23:00 +5°C° 0 mm 4 m/s 748 mmHg 76%
Arată mai mult

Formular de consimțământ

Meteoprog și furnizorii noștri de servicii pot stoca și accesa date personale, precum cookies, identificatori de dispozitiv sau alte tehnologii similare pe dispozitivul dumneavoastră și procesa astfel de date pentru a personaliza conținutul și reclamele, dar și pentru a oferi caracteristici de social media și pentru a analiza traficul.

  • Stocarea și/sau accesarea informațiilor pe dispozitivul dumneavoastră

    Cookies, identificatori de dispozitiv sau alte informații pot fi stocate sau accesate pe dispozitiv în scopurile indicate mai sus.

  • Reclame și conținut personalizat, evaluarea reclamelor și a conținutului, informații despre audiențe și dezvoltarea produselor

    Reclamele și conținutul pot fi personalizate pe baza unui profil. Pot fi adăugate date suplimentare pentru a personaliza mai bine reclamele și conținutul. Performanța reclamelor și conținutului poate fi măsurată. Pot fi obținute informații despre utilizatorii care au văzut reclamele și conținutul. Aceste date pot fi utilizate pentru a dezvolta sau îmbunătăți experiența utilizatorilor, sistemele și software-ul.

Dând clic pe ‘Sunt de acord’, permiteți utilizarea cookie-urilor menționate, a identificatorilor de dispozitiv, balizelor web sau altor tehnologii similare. Setările pot fi modificate din browser-ul dispozitivului dumneavoastră.

În anumite scopuri, interesele legitime pot prima asupra consimțământului. Puteți citi mai multe informații în acest sens în Politica privind Confidențialitatea Datelor și Cookie.